User: anonymous   Login
Location: Unspecified
(0.0000°N, 0.0000°E)
Time: 00:04:57
(UTC+00:00)
Language:

STARLINK-32544 - Orbit

View from above orbital plane
View from above orbital plane
View from above satellite
View from above satellite

Ground track
Ground track

The orbit is defined by the following mean orbital elements,

1 61917U          26145.51893881 +.00000000 +00000-0 +90768-3 0 00001
2 61917  42.9993 207.7171 0001636 269.4501  90.6163 15.27596559    09
Epoch (UTC): 25 May 2026 12:27:16
Eccentricity: 0.0001636
inclination: 42.9993°
perigee height: 482 km
apogee height: 484 km
right ascension of ascending node: 207.7171°
argument of perigee: 269.4501°
revolutions per day: 15.27596559
mean anomaly at epoch: 90.6163°

The dashed part of the orbit path shows where the satellite is in the earth's shadow,  

DLR